RYR33ZW EDDN-LBSF

Flight info

Callsign RYR33ZW
Flight time N/A
Altitude 37000
Route RODIS1C RODIS L604 LAMSI DCT SITNI DCT SASAL DCT BABIT DCT BGD DCT RAVAK DCT NISVA NISVA5D
Aircraft B738/M-SDE2E3FGHIRWXY/LB1

Departure

Time 2026-05-01 15:27
Airport Nuremberg Airport (EDDN)

Arrival

Time N/A
Airport Sofia Airport (LBSF)
Time Latitude Longitude Altitude Speed Heading
2026-05-01 15:03 49.49513 11.07855 1025 ft 0 kts 189°
2026-05-01 15:19 49.49564 11.07894 1024 ft 3 kts 219°
2026-05-01 15:19 49.49570 11.07901 1025 ft 1 kts 219°
2026-05-01 15:22 49.49568 11.07869 1026 ft 8 kts 281°
2026-05-01 15:22 49.49589 11.07735 1022 ft 9 kts 279°
2026-05-01 15:23 49.49593 11.07721 1023 ft 1 kts 311°
2026-05-01 15:23 49.49631 11.07759 1022 ft 15 kts 19°
2026-05-01 15:23 49.49695 11.07621 1024 ft 23 kts 278°
2026-05-01 15:23 49.49719 11.07384 1022 ft 22 kts 278°
2026-05-01 15:24 49.49741 11.07149 1021 ft 22 kts 278°
2026-05-01 15:24 49.49763 11.06921 1019 ft 21 kts 279°
2026-05-01 15:24 49.49786 11.06700 1019 ft 21 kts 278°
2026-05-01 15:24 49.49807 11.06486 1019 ft 20 kts 279°
2026-05-01 15:25 49.49827 11.06281 1017 ft 19 kts 278°
2026-05-01 15:25 49.49850 11.06084 1019 ft 15 kts 281°
2026-05-01 15:25 49.49901 11.05970 1022 ft 13 kts 333°
2026-05-01 15:25 49.49984 11.05932 1024 ft 13 kts 360°
2026-05-01 15:26 49.50043 11.06014 1026 ft 12 kts 79°
2026-05-01 15:26 49.50033 11.06148 1023 ft 16 kts 98°
2026-05-01 15:26 49.49981 11.06672 1023 ft 86 kts 98°
2026-05-01 15:26 49.49858 11.07909 1027 ft 146 kts 99°
2026-05-01 15:27 49.49696 11.09638 1407 ft 169 kts 98°
2026-05-01 15:27 49.49519 11.11440 2300 ft 171 kts 99°
2026-05-01 15:27 49.49336 11.13231 3198 ft 174 kts 99°
2026-05-01 15:28 49.48908 11.17431 3801 ft 223 kts 99°
2026-05-01 15:28 49.48666 11.19872 4236 ft 236 kts 99°
2026-05-01 15:28 49.48411 11.22412 4964 ft 247 kts 99°
2026-05-01 15:29 49.48047 11.27795 6598 ft 259 kts 92°
2026-05-01 15:29 49.48045 11.30568 6929 ft 259 kts 91°
2026-05-01 15:29 49.48046 11.36153 7201 ft 261 kts 91°
2026-05-01 15:30 49.48017 11.40802 7288 ft 262 kts 91°
2026-05-01 15:31 49.47908 11.53075 8268 ft 269 kts 91°
2026-05-01 15:31 49.47851 11.58883 9932 ft 276 kts 91°
2026-05-01 15:32 49.47787 11.64960 10931 ft 303 kts 91°
2026-05-01 15:32 49.47712 11.71919 11412 ft 345 kts 91°
2026-05-01 15:33 49.47585 11.83217 13528 ft 356 kts 90°
2026-05-01 15:34 49.47388 11.94807 15480 ft 367 kts 96°